Temperature
24 23 22 22 21 20 20 20 20 20 19 19 19 19 19 18 18 18 18 18 18 18 18 18 18 18 18 18 18 18 18 18 17 18 17 18 17 17 17 17 17 17 16
25 23 22 22 21 21 21 20 20 20 20 19 19 19 19 18 18 18 18 18 18 18 18 18 18 18 18 18 17 17 18 18 17 17 18 18 18 17 17 17 17 16 16
26 24 23 22 22 21 21 21 20 20 20 19 19 19 19 19 19 18 18 18 18 18 18 18 18 18 18 18 18 17 17 18 17 17 18 18 18 18 17 16 16 16 16
26 25 24 23 22 22 21 21 21 20 20 20 19 19 19 19 19 19 19 18 18 18 18 18 18 18 18 18 18 17 17 17 17 17 17 17 17 17 17 17 16 16 16
27 26 25 24 23 22 22 21 21 21 21 20 20 19 19 19 19 19 19 18 18 18 18 18 18 18 18 18 18 17 17 17 17 17 17 17 17 17 17 17 16 16 16
27 26 25 24 23 23 22 21 21 21 21 21 20 20 19 19 19 19 19 19 19 18 18 18 18 18 18 17 17 17 17 17 17 17 17 17 17 17 17 17 16 16 15
27 26 25 24 23 23 22 22 22 22 21 21 20 20 20 20 19 19 19 19 19 18 18 18 18 18 18 18 17 17 17 17 16 17 17 17 17 17 17 17 16 16 15
27 26 25 25 24 23 23 22 22 22 22 21 21 21 20 20 20 19 19 19 19 19 19 18 18 18 18 17 17 17 17 17 16 16 16 16 17 16 16 16 16 16 16
28 27 26 25 24 23 23 23 22 22 22 22 21 21 21 20 20 20 20 19 19 18 18 18 18 18 18 18 17 17 17 17 16 16 16 16 16 16 16 16 16 16 16
28 27 26 25 25 24 23 23 23 23 22 22 22 21 21 21 20 20 19 19 19 19 19 18 18 18 18 18 17 17 17 17 16 16 16 16 16 16 16 16 16 16 16
28 27 26 25 25 24 23 23 23 23 22 22 22 21 21 21 20 20 19 19 19 19 19 18 18 18 17 17 17 17 17 16 16 16 16 16 16 16 16 16 16 15 15
27 26 26 25 24 24 24 23 23 22 22 22 22 21 21 20 20 20 19 19 19 19 19 18 18 18 17 17 17 17 16 16 16 16 16 15 15 15 15 15 15 15 15
26 26 25 24 24 24 23 23 23 22 22 22 22 21 21 20 20 20 20 20 19 19 19 18 18 18 17 17 17 17 16 16 16 16 15 15 15 15 15 15 15 15 15
25 25 24 24 23 23 23 23 22 22 22 22 21 21 21 21 20 20 20 19 19 19 19 18 18 18 17 17 17 17 16 16 16 16 15 15 15 15 15 15 15 15 14
25 24 24 23 23 23 23 23 23 22 22 21 21 21 21 21 20 20 20 19 19 19 19 18 18 18 17 17 17 17 16 16 16 15 15 15 15 15 15 15 15 14 14
24 24 23 23 22 22 22 23 22 22 22 22 21 21 21 21 20 20 20 19 19 19 19 18 18 17 17 17 17 17 16 16 16 15 15 15 15 15 15 15 15 15 14
23 23 23 22 22 22 23 23 23 22 22 22 21 21 20 20 20 20 20 19 19 19 18 18 18 17 17 17 17 17 16 15 15 15 15 15 15 15 14 15 15 14 14
23 23 22 22 22 22 22 23 22 22 22 21 21 20 20 20 20 19 19 19 19 18 18 18 18 18 17 17 17 16 16 15 15 15 15 15 15 15 14 14 14 14 14
22 22 22 22 22 22 22 22 21 21 21 21 20 20 20 20 20 19 19 19 18 18 18 18 17 17 17 17 17 16 16 15 15 15 15 15 15 15 14 14 14 14 14
21 21 21 21 21 21 21 21 21 21 20 20 20 20 19 19 19 19 19 18 18 18 18 17 17 17 17 17 16 16 16 15 15 15 15 15 15 15 14 14 14 14 14
20 21 21 21 20 21 21 21 20 20 20 20 19 19 19 19 19 18 18 18 18 18 17 17 17 17 17 16 16 16 16 15 15 15 15 15 14 14 14 14 14 14 13
20 20 20 20 20 20 20 20 20 20 19 19 19 19 19 18 18 18 18 17 17 17 17 16 16 16 16 16 16 16 16 15 15 14 14 14 14 14 14 14 14 13 13
19 19 19 19 19 19 19 19 19 19 19 19 19 19 18 18 17 17 17 17 17 17 16 16 16 16 15 15 16 15 15 15 15 14 14 14 14 14 13 13 13 13 13
19 19 19 19 19 19 19 19 19 19 19 18 18 18 17 17 17 17 17 17 16 16 16 16 16 15 15 15 15 15 15 14 14 14 14 14 13 13 13 13 13 13 12
18 18 18 18 18 18 18 18 18 18 18 18 18 17 17 17 16 16 16 16 16 16 16 15 15 15 15 15 15 15 15 14 14 14 13 13 13 13 13 12 12 12 12
18 18 17 17 17 18 18 18 17 17 17 17 17 17 16 16 16 16 16 16 15 15 15 15 15 14 15 14 14 14 14 14 14 13 13 13 13 13 13 13 12 12 12
Wind_Speed
10 9 10 9 9 9 9 8 8 7 6 5 4 4 3 3 2 2 1 2 1 1 2 1 1 2 1 1 2 1 2 2 1 2 1 1 1 1 1 1 0 1 1
10 10 11 11 11 11 10 10 10 9 8 5 4 3 2 2 2 1 2 2 2 2 2 1 2 1 1 1 1 1 2 2 2 2 2 2 3 2 1 2 1 1 1
12 12 12 12 12 12 12 10 10 9 8 7 5 4 4 3 3 3 3 2 2 1 0 1 1 1 2 1 2 2 3 3 3 3 3 3 1 1 2 2 1 1 0
12 12 13 13 13 12 12 11 10 10 9 8 7 6 5 4 3 3 3 3 3 2 2 1 1 2 2 1 3 2 3 4 3 3 4 4 3 2 1 2 2 2 1
13 13 13 13 13 13 12 11 11 10 10 9 8 8 6 4 4 3 3 3 3 3 2 2 2 2 2 2 2 2 3 4 4 4 3 3 3 4 3 2 2 1 1
12 12 12 12 13 13 12 12 12 11 10 10 9 9 7 6 4 4 4 4 3 3 3 3 3 3 2 2 2 2 3 3 4 4 4 3 3 3 3 3 2 1 1
11 12 13 14 14 14 13 12 12 11 11 11 10 10 9 8 7 6 5 4 3 3 3 3 3 2 1 2 2 2 2 3 3 4 4 4 4 3 3 3 2 1 1
10 12 13 13 14 14 14 13 13 12 11 11 10 9 9 7 7 7 5 5 3 3 3 4 3 2 2 2 2 2 2 2 3 4 4 4 3 3 3 3 2 2 1
10 11 12 13 14 14 14 13 13 12 11 11 10 9 9 8 6 6 6 5 4 3 4 4 4 4 3 2 3 2 2 2 3 3 3 4 3 3 3 3 3 3 2
10 10 11 12 12 13 13 13 12 12 11 11 10 9 9 8 7 7 6 5 5 4 5 5 5 4 4 3 3 2 2 2 2 2 2 3 3 3 3 3 3 3 2
10 10 10 11 12 12 12 12 12 11 11 11 10 9 9 9 8 8 7 6 5 5 6 5 5 5 5 4 3 3 2 3 2 2 2 3 3 3 2 2 2 2 2
9 10 10 10 11 11 11 11 11 11 10 10 9 9 9 8 8 8 7 7 6 6 6 6 6 5 5 4 4 3 3 3 3 3 3 3 2 2 2 2 2 2 2
8 9 10 10 10 10 10 10 10 10 9 9 9 9 9 9 8 8 7 7 6 6 6 6 6 6 5 5 5 4 4 3 3 3 3 3 2 2 2 2 2 2 2
8 9 9 9 9 9 9 9 9 9 9 9 9 9 9 8 8 7 7 7 6 6 6 6 6 6 6 5 5 5 5 4 3 3 3 3 3 3 3 3 3 3 3
8 8 8 8 8 8 8 9 9 9 9 9 9 9 8 7 7 6 6 6 6 6 6 6 6 6 6 5 5 5 5 5 4 4 4 3 2 1 2 2 3 4 4
6 6 7 7 7 7 8 8 8 8 9 9 8 7 7 7 7 7 6 6 6 5 5 6 6 6 5 4 3 5 5 5 5 4 4 4 5 5 4 1 1 1 4
6 5 5 5 6 6 6 7 7 7 8 8 7 7 7 7 6 6 6 6 6 5 5 6 6 6 4 6 6 5 5 5 4 4 4 4 3 5 5 6 7 4 3
4 4 4 4 4 4 5 6 6 7 7 7 7 7 7 6 6 6 5 5 5 6 6 6 6 6 5 7 7 6 7 6 5 5 5 5 4 4 4 5 6 5 5
4 3 3 3 3 4 4 5 6 7 7 6 6 6 6 6 6 6 6 6 6 6 6 6 6 6 5 7 8 7 6 6 6 6 5 5 5 3 3 5 6 5 5
3 3 3 3 3 3 4 5 5 5 5 5 5 5 6 6 6 6 6 6 5 6 6 5 6 6 5 7 8 9 6 6 6 5 5 4 4 4 4 6 6 6 5
4 3 3 3 3 3 4 4 4 4 4 4 4 5 5 6 6 6 5 5 5 5 6 6 6 6 6 8 9 8 6 5 6 5 5 4 6 6 6 6 5 5 4
4 3 3 3 2 3 3 4 3 2 3 3 3 4 4 4 4 5 5 5 5 6 6 6 6 6 6 6 8 9 8 5 5 5 4 3 8 7 6 6 4 4 5
3 2 3 3 3 2 2 2 1 1 2 3 3 3 4 4 4 5 5 5 5 6 6 6 6 6 5 6 9 11 10 7 5 4 0 2 6 7 7 7 7 7 6
3 2 2 2 2 2 2 1 0 1 2 3 3 3 4 5 5 4 5 5 5 6 6 6 6 5 5 5 5 6 7 8 7 5 4 7 8 7 5 6 7 7 6
2 1 1 1 1 1 1 1 1 1 2 3 3 3 4 4 4 4 4 6 5 5 5 5 5 5 6 4 3 4 5 6 6 5 5 5 5 6 6 6 6 7 7
1 1 1 1 0 0 0 0 1 1 2 3 3 3 3 4 5 5 4 3 4 4 4 4 5 4 3 4 5 5 4 4 5 6 7 6 6 6 6 6 6 7 7
Wind_Direction
197 195 197 197 190 185 185 189 193 187 192 192 194 189 186 189 177 187 165 186 207 188 229 269 171 240 234 262 258 236 188 203 185 209 213 190 171 141 155 180 190 171 188
196 195 197 197 196 191 190 190 194 193 194 188 195 194 202 193 180 182 155 200 204 218 208 210 233 222 236 224 243 225 258 231 213 239 239 223 186 173 169 151 174 179 148
201 198 199 199 197 195 194 193 193 193 196 192 192 185 184 200 186 185 181 190 199 194 235 200 270 277 263 228 232 232 240 253 240 245 263 267 260 187 162 158 158 182 218
204 200 198 198 198 196 193 192 191 193 193 195 201 198 201 202 190 193 170 177 193 200 198 213 234 267 276 251 245 219 247 252 254 240 248 267 290 258 200 184 166 166 187
204 203 200 196 196 194 191 189 190 192 193 196 198 204 208 203 190 185 173 198 189 200 203 206 217 233 259 267 273 260 257 253 258 261 252 246 243 247 244 228 205 193 185
202 203 199 194 194 192 191 188 187 192 193 196 199 205 207 207 201 199 191 198 189 192 194 203 211 229 252 247 255 257 246 266 271 271 264 255 249 243 243 242 220 203 174
198 197 196 192 192 191 191 189 187 191 194 198 201 203 205 205 207 213 203 211 203 196 191 204 209 221 223 237 250 244 272 269 271 269 271 268 264 263 258 252 237 227 209
192 194 192 190 190 190 190 191 190 193 194 198 201 204 206 209 208 210 219 211 218 211 188 196 198 205 216 224 224 251 252 262 267 273 280 274 273 268 253 248 234 229 230
189 188 187 187 186 187 188 190 190 192 195 197 197 202 205 213 211 202 213 217 213 208 195 198 198 200 208 222 228 246 253 254 257 258 255 265 267 259 252 246 242 244 249
186 182 182 183 182 183 184 188 189 193 195 195 199 197 198 201 205 209 205 211 211 213 203 204 206 207 209 214 229 229 227 241 248 268 285 277 266 257 249 241 242 249 255
182 177 179 178 176 178 180 184 188 192 195 197 198 199 197 198 200 204 206 206 209 208 209 209 210 211 211 211 219 232 221 239 247 253 256 268 289 280 262 235 234 234 227
178 174 175 174 175 177 180 183 187 190 192 192 192 196 198 198 201 202 204 204 205 208 208 209 212 214 209 209 215 223 218 226 235 244 248 256 256 254 263 243 227 217 206
174 170 171 172 174 177 178 181 188 189 188 187 191 193 195 195 201 202 202 203 203 205 204 208 213 213 210 211 216 220 221 224 230 241 240 240 239 237 226 225 216 202 184
169 169 168 170 171 174 177 181 187 187 186 188 191 192 194 193 195 198 201 200 200 201 201 207 213 213 212 215 217 217 218 219 222 228 235 239 234 227 216 204 196 185 171
169 170 169 167 167 170 176 181 182 182 186 189 191 190 190 190 189 191 195 196 197 198 201 207 209 210 211 216 217 220 213 216 221 220 220 218 210 296 247 233 190 182 183
171 167 168 167 169 175 178 176 179 180 182 188 191 186 185 187 188 190 193 193 198 203 200 207 210 212 215 153 195 244 225 222 226 224 219 207 193 191 197 221 214 224 200
174 170 168 174 178 178 176 176 178 178 181 186 187 183 183 184 186 190 188 192 197 200 203 211 212 212 197 159 183 229 236 230 230 229 229 232 202 196 205 189 191 204 218
172 172 178 183 183 179 177 175 174 176 181 184 185 184 183 181 181 181 184 195 200 201 205 211 213 213 196 170 188 209 223 227 228 230 230 229 219 214 220 208 202 207 205
159 164 181 180 168 160 164 163 173 174 175 180 185 186 186 184 182 186 189 196 201 207 213 213 213 214 199 175 187 211 221 221 224 227 228 228 224 190 225 219 212 210 207
148 154 154 139 133 138 143 152 162 166 174 179 182 184 193 193 194 195 196 201 203 210 218 212 214 213 205 174 188 213 226 222 225 221 218 208 225 184 203 220 218 216 217
132 131 123 116 115 131 143 153 163 175 179 175 178 183 195 199 201 199 199 204 206 207 218 213 213 213 207 180 185 208 228 230 233 232 228 207 167 181 206 236 230 223 229
139 137 125 114 111 127 147 156 168 177 167 169 179 187 197 212 205 202 202 203 208 212 217 215 220 216 204 191 187 196 222 255 235 242 240 182 150 180 205 222 219 220 230
132 131 123 111 102 105 131 158 158 169 173 172 182 202 210 214 213 208 207 210 213 224 226 223 223 221 210 190 181 194 207 226 232 235 160 143 179 194 204 207 207 213 222
128 114 112 112 105 101 116 122 123 197 197 194 193 206 219 219 211 214 216 220 222 228 232 232 231 226 217 213 199 203 205 209 222 227 186 180 196 213 222 205 204 216 221
123 115 111 106 109 86 84 133 183 216 221 218 219 223 232 228 218 220 232 230 232 232 233 238 237 233 228 213 199 213 218 223 221 214 218 222 217 218 220 220 218 216 215
158 170 191 193 148 86 323 291 236 220 232 233 233 238 243 237 224 219 231 239 237 207 217 245 258 242 227 183 190 213 229 224 200 210 224 227 230 229 228 228 223 218 220
Height
1529 1531 1533 1534 1536 1537 1538 1539 1540 1541 1542 1544 1545 1546 1547 1547 1548 1548 1548 1548 1548 1548 1548 1549 1549 1549 1550 1550 1550 1550 1550 1551 1550 1551 1551 1551 1550 1550 1550 1550 1550 1550 1549
1526 1528 1530 1532 1533 1535 1536 1538 1539 1540 1542 1543 1544 1545 1546 1547 1548 1548 1548 1548 1548 1548 1549 1548 1549 1549 1548 1548 1549 1549 1549 1550 1549 1550 1549 1549 1550 1548 1548 1548 1548 1548 1548
1522 1525 1527 1529 1531 1532 1534 1536 1537 1539 1540 1542 1543 1544 1545 1546 1547 1547 1547 1547 1548 1548 1548 1548 1548 1548 1548 1548 1547 1547 1548 1548 1548 1548 1548 1548 1547 1547 1547 1546 1546 1546 1546
1518 1521 1524 1526 1528 1530 1532 1534 1536 1537 1539 1540 1542 1543 1544 1545 1546 1546 1547 1547 1547 1547 1547 1547 1547 1547 1547 1547 1547 1547 1546 1546 1547 1546 1546 1546 1546 1546 1546 1546 1545 1545 1544
1514 1517 1520 1523 1525 1528 1530 1532 1533 1535 1537 1538 1540 1541 1543 1544 1545 1545 1545 1546 1546 1546 1546 1546 1546 1546 1546 1545 1545 1544 1544 1545 1545 1545 1544 1544 1543 1544 1544 1543 1544 1543 1543
1510 1514 1517 1520 1522 1525 1528 1530 1531 1533 1534 1536 1538 1539 1541 1542 1543 1544 1545 1545 1546 1546 1545 1545 1545 1545 1545 1544 1543 1543 1542 1542 1542 1542 1542 1542 1542 1542 1542 1541 1541 1541 1541
1506 1510 1513 1516 1519 1522 1525 1527 1528 1530 1532 1534 1536 1537 1538 1540 1541 1542 1543 1543 1545 1545 1544 1544 1543 1543 1543 1542 1542 1541 1541 1540 1540 1539 1540 1540 1540 1540 1540 1540 1539 1539 1540
1503 1506 1509 1512 1515 1518 1521 1524 1526 1528 1530 1532 1533 1535 1536 1538 1539 1540 1541 1542 1542 1543 1542 1542 1541 1541 1541 1540 1540 1540 1539 1538 1537 1537 1537 1537 1537 1537 1537 1538 1538 1537 1538
1500 1503 1506 1509 1512 1515 1518 1521 1523 1525 1527 1529 1531 1532 1533 1535 1536 1537 1538 1539 1540 1540 1540 1540 1540 1539 1539 1538 1538 1538 1537 1536 1536 1536 1535 1535 1535 1535 1535 1535 1535 1536 1536
1497 1500 1503 1506 1509 1512 1515 1518 1520 1522 1524 1526 1528 1530 1531 1532 1533 1535 1536 1536 1537 1537 1538 1538 1538 1538 1537 1537 1536 1536 1535 1535 1534 1534 1533 1533 1534 1533 1533 1533 1533 1533 1534
1494 1497 1501 1504 1507 1510 1513 1515 1517 1519 1521 1523 1525 1527 1528 1529 1531 1532 1533 1534 1534 1535 1535 1536 1536 1536 1536 1535 1534 1534 1533 1533 1533 1532 1532 1531 1531 1531 1532 1531 1531 1531 1532
1492 1495 1499 1502 1504 1507 1510 1512 1515 1517 1519 1520 1522 1524 1525 1526 1528 1529 1530 1531 1531 1532 1532 1533 1533 1534 1534 1533 1533 1532 1532 1531 1531 1530 1530 1530 1530 1529 1529 1529 1530 1530 1530
1491 1494 1497 1499 1502 1505 1507 1510 1512 1514 1516 1518 1519 1521 1522 1523 1525 1526 1527 1528 1528 1529 1530 1530 1531 1531 1531 1531 1531 1530 1530 1529 1529 1528 1528 1528 1527 1527 1527 1527 1528 1528 1528
1490 1492 1495 1497 1500 1502 1505 1507 1510 1512 1513 1515 1516 1518 1519 1520 1522 1523 1523 1525 1526 1526 1527 1527 1528 1528 1528 1528 1528 1528 1527 1527 1526 1526 1526 1526 1526 1525 1525 1525 1525 1526 1526
1489 1491 1493 1495 1497 1500 1502 1504 1507 1509 1511 1512 1514 1515 1516 1518 1519 1519 1520 1522 1522 1523 1524 1524 1525 1525 1525 1526 1526 1525 1525 1525 1525 1524 1524 1524 1523 1523 1523 1524 1524 1524 1524
1488 1490 1492 1494 1495 1497 1499 1501 1503 1506 1507 1509 1511 1512 1514 1515 1516 1517 1518 1519 1519 1520 1521 1521 1522 1522 1523 1522 1522 1523 1523 1522 1522 1522 1522 1522 1521 1521 1521 1521 1521 1522 1522
1487 1489 1490 1492 1493 1495 1496 1498 1500 1503 1504 1506 1508 1509 1511 1512 1513 1514 1515 1516 1516 1517 1518 1519 1519 1519 1519 1519 1519 1519 1520 1520 1520 1520 1520 1521 1520 1519 1519 1519 1519 1519 1520
1486 1487 1489 1490 1492 1493 1495 1495 1498 1500 1502 1503 1505 1506 1507 1509 1510 1511 1512 1513 1514 1515 1515 1516 1516 1516 1516 1516 1516 1517 1517 1517 1517 1517 1517 1517 1517 1517 1517 1517 1517 1517 1517
1484 1485 1487 1489 1490 1491 1492 1492 1495 1497 1498 1500 1501 1503 1504 1506 1507 1507 1508 1510 1510 1511 1512 1512 1512 1512 1512 1513 1513 1513 1514 1514 1514 1514 1514 1514 1514 1514 1514 1514 1514 1514 1514
1482 1484 1486 1487 1488 1488 1490 1491 1493 1494 1495 1497 1498 1499 1501 1502 1503 1504 1504 1506 1506 1507 1508 1508 1509 1509 1509 1509 1509 1509 1510 1511 1511 1511 1511 1510 1510 1510 1511 1511 1511 1511 1512
1481 1483 1484 1485 1486 1487 1488 1489 1490 1491 1492 1493 1495 1496 1498 1499 1500 1500 1501 1502 1502 1503 1504 1504 1505 1505 1505 1505 1505 1506 1506 1507 1508 1508 1508 1507 1507 1507 1507 1508 1508 1508 1509
1481 1482 1483 1483 1484 1485 1486 1487 1488 1489 1490 1491 1492 1494 1495 1496 1497 1496 1496 1497 1498 1499 1499 1500 1501 1501 1501 1501 1501 1502 1502 1503 1503 1504 1504 1504 1503 1503 1503 1503 1504 1504 1505
1480 1481 1481 1482 1483 1483 1484 1485 1486 1487 1487 1488 1489 1490 1491 1492 1493 1493 1493 1494 1494 1495 1496 1496 1497 1497 1497 1497 1497 1497 1498 1498 1498 1499 1499 1500 1499 1499 1499 1499 1500 1500 1500
1479 1480 1480 1481 1481 1481 1482 1483 1484 1485 1485 1486 1486 1486 1488 1489 1489 1488 1490 1490 1490 1491 1492 1492 1492 1493 1493 1493 1492 1493 1493 1494 1494 1495 1495 1495 1495 1495 1495 1495 1495 1496 1496
1478 1479 1479 1479 1480 1480 1480 1481 1481 1482 1483 1483 1483 1484 1484 1485 1485 1485 1485 1486 1486 1486 1486 1487 1488 1488 1488 1488 1488 1488 1488 1489 1490 1490 1490 1491 1491 1491 1491 1492 1492 1492 1492
1476 1477 1477 1478 1478 1478 1478 1479 1479 1479 1480 1480 1480 1481 1481 1481 1481 1480 1480 1481 1481 1481 1481 1482 1482 1482 1483 1483 1484 1484 1484 1485 1485 1486 1486 1486 1487 1487 1487 1487 1487 1487 1487